DW8234 Weather Reports


Display with metric or nautical units.
time (UTC)temp
F
wind
direction
speed
MPH
gust
MPH
rain 1hr
in
rain 24hr
in
rain mn
in
humidity
%
barometer
mb
20181114235602 70 108 0.0 5.0 0.00 0.09 0.00 94 1016.5
20181114235002 69 36 0.0 5.0 0.00 0.09 0.00 94 1016.5
20181114232003 69 50 0.0 4.0 0.00 0.09 0.00 94 1016.7
20181114230805 69 42 1.0 4.0 0.00 0.09 0.00 94 1016.7
20181114230202 69 0 0.0 3.0 0.00 0.09 0.00 94 1016.9
20181114225001 69 338 0.0 4.0 0.00 0.09 0.00 94 1016.8
20181114223801 68 72 0.0 4.0 0.00 0.09 0.00 94 1017.1
20181114222601 68 8 4.0 4.0 0.00 0.09 0.00 94 1017.3
20181114221401 68 117 1.0 3.0 0.00 0.09 0.00 94 1017.3
20181114220801 68 82 0.0 2.0 0.00 0.09 0.00 93 1017.4
20181114220204 68 348 1.0 1.0 0.00 0.09 0.00 94 1017.3
20181114215002 68 71 1.0 8.0 0.00 0.09 0.00 94 1017.4
20181114214401 68 233 0.0 7.0 0.00 0.09 0.00 94 1017.3
20181114213801 68 318 1.0 7.0 0.00 0.09 0.00 94 1017.2
20181114212600 68 62 0.0 7.0 0.00 0.09 0.00 94 1017.2
20181114212000 68 56 0.0 7.0 0.00 0.09 0.00 94 1017.1
20181114211401 68 5 1.0 7.0 0.00 0.09 0.00 94 1017.2
20181114210800 68 56 2.0 7.0 0.00 0.09 0.00 93 1017.3
20181114210204 68 105 1.0 3.0 0.00 0.09 0.00 93 1017.4
20181114205604 68 25 1.0 9.0 0.00 0.09 0.00 93 1017.3
20181114205000 68 348 2.0 9.0 0.00 0.09 0.00 93 1017.3
20181114195559 68 29 2.0 7.0 0.00 0.09 0.00 92 1017.8
20181114194959 68 15 1.0 5.0 0.00 0.09 0.00 92 1017.8
20181114194359 68 121 0.0 5.0 0.00 0.09 0.00 91 1017.8
20181114193800 68 76 1.0 5.0 0.00 0.09 0.00 91 1018.0
20181114191359 69 62 2.0 5.0 0.00 0.09 0.00 91 1018.0
20181114190159 69 67 2.0 3.0 0.00 0.09 0.00 90 1018.0
20181114184359 69 248 0.0 5.0 0.00 0.09 0.00 90 1018.1
20181114183759 70 0 1.0 3.0 0.00 0.09 0.00 90 1018.2
20181114182559 70 267 0.0 3.0 0.00 0.09 0.00 89 1018.6
20181114181958 70 143 1.0 3.0 0.00 0.09 0.00 89 1018.6
20181114180802 70 0 1.0 3.0 0.00 0.09 0.00 88 1018.6
20181114180202 71 13 0.0 2.0 0.00 0.09 0.00 88 1018.8
20181114175558 71 303 3.0 7.0 0.00 0.09 0.00 87 1018.8
20181114173758 72 324 0.0 7.0 0.00 0.09 0.00 87 1018.9
20181114173202 72 46 0.0 7.0 0.00 0.09 0.00 86 1019.1
20181114171358 72 16 0.0 7.0 0.00 0.09 0.00 86 1019.5
20181114170758 72 44 2.0 7.0 0.00 0.09 0.00 86 1019.5
20181114165558 72 77 0.0 7.0 0.00 0.09 0.00 86 1019.5
20181114164958 72 177 0.0 7.0 0.00 0.09 0.00 86 1019.6
20181114163801 71 57 1.0 7.0 0.00 0.09 0.00 86 1019.9
20181114163158 71 13 0.0 7.0 0.00 0.09 0.00 86 1019.9
20181114162557 71 233 0.0 7.0 0.00 0.09 0.00 87 1019.9
20181114161957 71 90 1.0 7.0 0.00 0.09 0.00 88 1020.1
20181114161357 71 355 0.0 7.0 0.00 0.09 0.00 88 1020.1
20181114160757 70 5 0.0 3.0 0.00 0.09 0.00 88 1020.1
20181114160158 70 64 0.0 3.0 0.00 0.09 0.00 88 1020.2
20181114155557 70 33 1.0 4.0 0.00 0.09 0.00 89 1020.2
20181114154957 70 100 0.0 4.0 0.00 0.09 0.00 88 1020.2
20181114153757 70 348 0.0 4.0 0.00 0.09 0.00 88 1020.2
20181114151956 70 16 0.0 4.0 0.00 0.09 0.00 88 1020.3
20181114151356 70 16 0.0 4.0 0.00 0.09 0.00 88 1020.5
20181114150757 70 0 0.0 4.0 0.00 0.09 0.00 88 1020.5
20181114150157 70 18 0.0 3.0 0.00 0.09 0.00 87 1020.5
20181114145557 70 6 2.0 6.0 0.00 0.09 0.00 88 1020.4
20181114144356 70 42 1.0 5.0 0.00 0.09 0.00 88 1020.6
20181114143756 70 105 0.0 5.0 0.00 0.09 0.00 88 1020.3
20181114143156 70 219 0.0 5.0 0.00 0.09 0.00 88 1020.3
20181114141956 70 142 0.0 5.0 0.00 0.09 0.00 89 1020.3
20181114140156 70 220 2.0 2.0 0.00 0.09 0.00 92 1020.2
20181114135555 69 303 2.0 4.0 0.00 0.09 0.00 91 1020.3
20181114133756 68 26 0.0 4.0 0.00 0.09 0.00 92 1020.2
20181114133159 68 32 1.0 4.0 0.00 0.09 0.00 93 1020.2
20181114132555 68 71 0.0 4.0 0.00 0.09 0.00 93 1020.3
20181114130755 67 319 0.0 3.0 0.00 0.09 0.00 95 1020.2
20181114125555 67 3 1.0 3.0 0.00 0.09 0.00 95 1020.1
20181114124955 67 328 0.0 3.0 0.00 0.09 0.00 95 1020.1
20181114124355 66 305 0.0 3.0 0.00 0.09 0.00 95 1020.1
20181114123155 66 2 1.0 3.0 0.00 0.09 0.00 96 1019.8
20181114122558 66 31 0.0 3.0 0.00 0.09 0.00 96 1019.8
20181114120155 66 342 0.0 1.0 0.00 0.09 0.00 97 1019.8
20181114114354 66 348 0.0 3.0 0.00 0.09 0.00 98 1019.5
20181114113754 66 347 0.0 2.0 0.00 0.09 0.00 97 1019.6
20181114111954 65 0 0.0 2.0 0.00 0.09 0.00 98 1019.3
20181114111354 65 324 0.0 0.0 0.00 0.09 0.00 98 1019.2
20181114110754 65 324 0.0 0.0 0.00 0.09 0.00 97 1019.2
20181114105553 65 324 0.0 2.0 0.00 0.09 0.00 98 1019.1
20181114103754 65 324 0.0 2.0 0.00 0.09 0.00 98 1019.1
20181114103153 64 64 0.0 2.0 0.00 0.09 0.00 97 1018.9
20181114102553 64 65 0.0 2.0 0.00 0.09 0.00 97 1018.8
20181114101353 64 30 0.0 0.0 0.00 0.09 0.00 97 1018.8
20181114095553 64 31 0.0 2.0 0.00 0.09 0.00 96 1018.6
20181114094953 64 31 0.0 2.0 0.00 0.09 0.00 96 1018.3
20181114094353 64 31 0.0 2.0 0.00 0.09 0.00 96 1018.3
20181114093754 64 30 0.0 2.0 0.00 0.09 0.00 96 1018.3
20181114093153 65 30 0.0 2.0 0.00 0.09 0.00 96 1018.3
20181114091953 65 31 0.0 2.0 0.00 0.09 0.00 96 1018.3
20181114091353 65 31 0.0 2.0 0.00 0.09 0.00 96 1018.3
20181114090753 65 27 0.0 2.0 0.00 0.09 0.00 96 1018.2
20181114090152 65 27 0.0 0.0 0.00 0.09 0.00 96 1018.3
20181114084952 65 27 0.0 2.0 0.00 0.09 0.00 96 1018.3
20181114084352 65 300 0.0 2.0 0.00 0.09 0.00 95 1018.2
20181114082552 65 300 0.0 2.0 0.00 0.09 0.00 95 1018.2
20181114081952 65 0 0.0 1.0 0.00 0.09 0.00 95 1018.1
20181114080152 65 0 0.0 0.0 0.00 0.09 0.00 94 1017.9
20181114074951 65 0 0.0 3.0 0.00 0.09 0.00 94 1018.0
20181114073751 65 0 0.0 3.0 0.00 0.09 0.00 94 1018.1
20181114073151 65 0 0.0 3.0 0.00 0.09 0.00 94 1018.2
20181114071952 65 9 0.0 2.0 0.00 0.09 0.00 94 1017.9
20181114071355 65 6 0.0 1.0 0.00 0.09 0.00 94 1018.0
20181114070751 65 6 0.0 1.0 0.00 0.09 0.00 94 1018.1
20181114064351 65 9 0.0 4.0 0.00 0.09 0.00 94 1018.6
20181114063751 65 9 1.0 4.0 0.00 0.09 0.00 94 1018.7
20181114062551 65 338 0.0 4.0 0.00 0.09 0.00 94 1018.5
20181114061951 65 344 0.0 3.0 0.00 0.09 0.00 94 1018.6
20181114061350 65 320 0.0 3.0 0.00 0.09 0.00 94 1018.6
20181114060750 65 338 3.0 3.0 0.00 0.09 0.00 94 1018.7
20181114060150 65 69 0.0 1.0 0.00 0.09 0.00 94 1018.5
20181114054950 65 58 0.0 3.0 0.00 0.09 0.00 94 1018.6
20181114054350 65 345 0.0 3.0 0.00 0.09 0.00 94 1018.6
20181114053750 66 313 0.0 3.0 0.00 0.09 0.00 94 1018.6
20181114052550 66 266 0.0 3.0 0.00 0.09 0.00 94 1018.5
20181114051350 66 22 2.0 2.0 0.00 0.09 0.00 95 1018.5
20181114050750 66 57 0.0 2.0 0.00 0.09 0.00 94 1018.6
20181114050150 66 344 0.0 0.0 0.00 0.09 0.00 95 1018.6
20181114045550 66 344 0.0 4.0 0.00 0.14 0.09 95 1018.7
20181114044950 66 90 0.0 4.0 0.00 0.14 0.09 95 1018.8
20181114044350 66 331 0.0 4.0 0.00 0.14 0.09 95 1018.7
20181114043749 66 5 0.0 4.0 0.00 0.14 0.09 94 1018.6
20181114041349 67 311 3.0 4.0 0.00 0.14 0.09 94 1018.6
20181114040749 67 322 0.0 2.0 0.00 0.14 0.09 94 1018.7
20181114035549 67 294 0.0 5.0 0.02 0.14 0.09 94 1019.1
20181114034949 67 70 0.0 5.0 0.02 0.14 0.09 93 1019.1
20181114033749 68 32 0.0 5.0 0.02 0.14 0.09 94 1018.9
20181114033149 68 340 1.0 4.0 0.02 0.14 0.09 94 1018.9
20181114031348 69 26 1.0 4.0 0.02 0.14 0.09 94 1018.3
20181114030749 69 275 2.0 3.0 0.02 0.14 0.09 94 1018.2
20181114030148 70 0 0.0 2.0 0.02 0.14 0.09 95 1018.0
20181114025549 70 81 1.0 6.0 0.09 0.14 0.09 95 1018.0
20181114024948 70 189 0.0 6.0 0.09 0.14 0.09 94 1018.1
20181114024348 70 155 0.0 6.0 0.09 0.14 0.09 94 1017.9
20181114023748 70 219 0.0 6.0 0.09 0.14 0.09 93 1017.8
20181114023148 71 186 1.0 6.0 0.09 0.14 0.09 93 1017.9
20181114022549 72 8 0.0 6.0 0.09 0.14 0.09 93 1017.6
20181114021948 72 0 2.0 5.0 0.09 0.14 0.09 94 1017.7
20181114021348 72 11 1.0 5.0 0.09 0.14 0.09 93 1017.4
20181114015548 73 343 0.0 3.0 0.06 0.11 0.06 90 1017.2
20181114010747 75 332 0.0 1.0 0.00 0.05 0.00 84 1016.7
20181114003751 75 0 0.0 2.0 0.00 0.05 0.00 84 1016.1
20181114003147 75 0 0.0 2.0 0.00 0.05 0.00 83 1016.1
20181114002547 75 358 0.0 2.0 0.00 0.05 0.00 83 1016.1
20181114001947 76 358 0.0 2.0 0.00 0.05 0.00 82 1016.1
20181114001347 76 358 0.0 2.0 0.00 0.05 0.00 81 1016.1
20181114000747 76 339 0.0 1.0 0.00 0.05 0.00 81 1016.1
20181114000146 76 339 0.0 0.0 0.00 0.05 0.00 80 1015.9